User: anonymous   Login
Location: Kalberh�ni
(46.4610°N, 7.2453°E)
Time: 21:48:24
(UTC+00:00)
Language:

NOAA 16 DEB - Orbit

View from above orbital plane
View from above orbital plane
View from above satellite
View from above satellite

Ground track
Ground track

The orbit data is extracted from the following two-line orbital elements,

1 41051U 00055J   22021.19167670  .00001180  00000-0  60993-3 0  9995
2 41051  98.8110 109.5905 0019746 239.8884 120.0333 14.16845164318079
Epoch (UTC): 21 January 2022 04:36:00
Eccentricity: 0.0019746
inclination: 98.8110°
perigee height: 822 km
apogee height: 850 km
right ascension of ascending node: 109.5905°
argument of perigee: 239.8884°
revolutions per day: 14.16845164
mean anomaly at epoch: 120.0333°
orbit number at epoch: 31807

The dashed part of the orbit path shows where the satellite is in the earth's shadow,  

DLR